This is the latest recevied weather packets stored in our database for station/object IN3XSV-15. If no packets are shown the sender has not sent any weather packets the latest 10 day(s).
| Time | Temp. | Humidity | Pressure | Rain* | Wind** | Luminosity | Snow |
|---|---|---|---|---|---|---|---|
| 1777519210 | 0.56° C | 95% | 858.9 hPa | 0 mm | - | - | - |
| 1777518910 | 0.56° C | 95% | 858.9 hPa | 0 mm | - | - | - |
| 1777518610 | 0.56° C | 94% | 858.9 hPa | 0 mm | - | - | - |
| 1777518310 | 0.56° C | 94% | 858.9 hPa | 0 mm | - | - | - |
| 1777518010 | 0.56° C | 94% | 858.9 hPa | 0 mm | - | - | - |
| 1777517710 | 0° C | 94% | 858.9 hPa | 0 mm | - | - | - |
| 1777517410 | 0° C | 94% | 859.2 hPa | 0 mm | - | - | - |
| 1777517110 | 0.56° C | 94% | 859.2 hPa | 0 mm | - | - | - |
| 1777516810 | 0.56° C | 94% | 859.3 hPa | 0 mm | - | - | - |
| 1777516510 | 0.56° C | 94% | 859.2 hPa | 0 mm | - | - | - |
| 1777516210 | 0.56° C | 94% | 859.1 hPa | 0 mm | - | - | - |
| 1777515910 | 0.56° C | 94% | 859.2 hPa | 0 mm | - | - | - |
| 1777515610 | 0.56° C | 94% | 859.2 hPa | 0 mm | - | - | - |
| 1777515310 | 1.11° C | 94% | 859.3 hPa | 0 mm | - | - | - |
| 1777515010 | 1.11° C | 94% | 859.3 hPa | 0 mm | - | - | - |
| 1777514710 | 1.11° C | 94% | 859.3 hPa | 0 mm | - | - | - |
| 1777514410 | 1.11° C | 94% | 859.3 hPa | 0 mm | - | - | - |
| 1777514110 | 1.67° C | 94% | 859.4 hPa | 0 mm | - | - | - |
| 1777513810 | 1.67° C | 94% | 859.3 hPa | 0 mm | - | - | - |
| 1777513510 | 1.67° C | 94% | 859.3 hPa | 0 mm | - | - | - |
| 1777513210 | 1.67° C | 94% | 859.3 hPa | 0 mm | - | - | - |
| 1777512910 | 1.67° C | 94% | 859.2 hPa | 0 mm | - | - | - |
| 1777512610 | 2.22° C | 94% | 859.3 hPa | 0 mm | - | - | - |
| 1777512310 | 2.22° C | 94% | 859.2 hPa | 0 mm | - | - | - |
| 1777512010 | 2.22° C | 94% | 859.2 hPa | 0 mm | - | - | - |
* Rain latest hour (hover to see other rain measurements)
** Current wind speed in m/s (hover to see current wind gust speed)